| time (UTC) | temp C | wind direction | speed KPH | gust KPH | rain 1hr cm | rain 24hr cm | rain mn cm | humidity % | barometer mb |
| 20260503224546 | 14 | 232 | 11.3 | 32.2 | 0.00 | 0.00 | 0.00 | 47 | 1013.5 |
| 20260503224027 | 14 | 223 | 14.5 | 32.2 | 0.00 | 0.00 | 0.00 | 47 | 1013.5 |
| 20260503223531 | 14 | 225 | 14.5 | 27.4 | 0.00 | 0.00 | 0.00 | 47 | 1013.5 |
| 20260503223046 | 14 | 200 | 14.5 | 27.4 | 0.00 | 0.00 | 0.00 | 48 | 1013.5 |
| 20260503222528 | 15 | 211 | 14.5 | 27.4 | 0.00 | 0.00 | 0.00 | 47 | 1013.6 |
| 20260503222026 | 14 | 217 | 9.7 | 29.0 | 0.00 | 0.00 | 0.00 | 48 | 1013.6 |
| 20260503221552 | 14 | 245 | 11.3 | 30.6 | 0.00 | 0.00 | 0.00 | 48 | 1013.5 |
| 20260503221028 | 15 | 219 | 19.3 | 32.2 | 0.00 | 0.00 | 0.00 | 46 | 1013.6 |
| 20260503220531 | 15 | 215 | 16.1 | 35.4 | 0.00 | 0.00 | 0.00 | 47 | 1013.6 |
| 20260503220044 | 15 | 175 | 22.5 | 35.4 | 0.00 | 0.00 | 0.00 | 48 | 1013.5 |
| 20260503215528 | 15 | 230 | 12.9 | 30.6 | 0.00 | 0.00 | 0.00 | 48 | 1013.6 |
| 20260503215027 | 15 | 207 | 17.7 | 35.4 | 0.00 | 0.00 | 0.00 | 50 | 1013.7 |
| 20260503214541 | 15 | 203 | 16.1 | 38.6 | 0.00 | 0.00 | 0.00 | 49 | 1013.5 |
| 20260503214027 | 15 | 200 | 24.1 | 38.6 | 0.00 | 0.00 | 0.00 | 49 | 1013.7 |
| 20260503213527 | 15 | 202 | 17.7 | 35.4 | 0.00 | 0.00 | 0.00 | 47 | 1013.7 |
| 20260503213040 | 14 | 198 | 19.3 | 35.4 | 0.00 | 0.00 | 0.00 | 50 | 1013.7 |
| 20260503212530 | 14 | 211 | 19.3 | 32.2 | 0.00 | 0.00 | 0.00 | 51 | 1013.8 |
| 20260503212027 | 15 | 213 | 22.5 | 37.0 | 0.00 | 0.00 | 0.00 | 47 | 1013.7 |
| 20260503211547 | 15 | 231 | 20.9 | 37.0 | 0.00 | 0.00 | 0.00 | 50 | 1013.7 |
| 20260503211030 | 15 | 180 | 17.7 | 37.0 | 0.00 | 0.00 | 0.00 | 50 | 1013.7 |
| 20260503210534 | 15 | 255 | 14.5 | 37.0 | 0.00 | 0.00 | 0.00 | 49 | 1013.9 |
| 20260503210044 | 15 | 224 | 19.3 | 41.8 | 0.00 | 0.00 | 0.00 | 47 | 1013.8 |
| 20260503205528 | 15 | 217 | 16.1 | 41.8 | 0.00 | 0.00 | 0.00 | 50 | 1013.8 |
| 20260503205028 | 15 | 211 | 12.9 | 40.2 | 0.00 | 0.00 | 0.00 | 47 | 1013.8 |
| 20260503204543 | 15 | 217 | 20.9 | 35.4 | 0.00 | 0.00 | 0.00 | 47 | 1013.8 |
| 20260503204034 | 15 | 212 | 16.1 | 35.4 | 0.00 | 0.00 | 0.00 | 49 | 1013.8 |
| 20260503203530 | 15 | 240 | 19.3 | 33.8 | 0.00 | 0.00 | 0.00 | 50 | 1014.0 |
| 20260503203043 | 15 | 218 | 20.9 | 43.5 | 0.00 | 0.00 | 0.00 | 51 | 1014.0 |
| 20260503202529 | 15 | 217 | 17.7 | 43.5 | 0.00 | 0.00 | 0.00 | 49 | 1014.0 |
| 20260503202027 | 15 | 240 | 20.9 | 37.0 | 0.00 | 0.00 | 0.00 | 49 | 1014.0 |
| 20260503201541 | 15 | 219 | 19.3 | 37.0 | 0.00 | 0.00 | 0.00 | 50 | 1014.0 |
| 20260503201031 | 15 | 198 | 22.5 | 33.8 | 0.00 | 0.00 | 0.00 | 48 | 1014.1 |
| 20260503200530 | 15 | 196 | 19.3 | 37.0 | 0.00 | 0.00 | 0.00 | 50 | 1014.2 |
| 20260503200056 | 15 | 229 | 19.3 | 37.0 | 0.00 | 0.00 | 0.00 | 49 | 1014.1 |
| 20260503195530 | 16 | 225 | 14.5 | 33.8 | 0.00 | 0.00 | 0.00 | 47 | 1014.2 |
| 20260503195034 | 16 | 225 | 17.7 | 33.8 | 0.00 | 0.00 | 0.00 | 49 | 1014.3 |
| 20260503194543 | 15 | 271 | 16.1 | 32.2 | 0.00 | 0.00 | 0.00 | 49 | 1014.5 |
| 20260503194027 | 15 | 219 | 19.3 | 37.0 | 0.00 | 0.00 | 0.00 | 48 | 1014.6 |
| 20260503193530 | 15 | 207 | 20.9 | 37.0 | 0.00 | 0.00 | 0.00 | 48 | 1014.7 |
| 20260503193047 | 15 | 205 | 19.3 | 32.2 | 0.00 | 0.00 | 0.00 | 47 | 1014.8 |
| 20260503192527 | 16 | 206 | 11.3 | 30.6 | 0.00 | 0.00 | 0.00 | 47 | 1015.0 |
| 20260503192029 | 16 | 215 | 12.9 | 30.6 | 0.00 | 0.00 | 0.00 | 47 | 1015.0 |
| 20260503191541 | 15 | 205 | 12.9 | 30.6 | 0.00 | 0.00 | 0.00 | 48 | 1015.0 |
| 20260503191031 | 15 | 194 | 12.9 | 38.6 | 0.00 | 0.00 | 0.00 | 50 | 1015.3 |
| 20260503190528 | 15 | 198 | 20.9 | 38.6 | 0.00 | 0.00 | 0.00 | 49 | 1015.3 |
| 20260503190043 | 15 | 208 | 12.9 | 38.6 | 0.00 | 0.00 | 0.00 | 50 | 1015.3 |
| 20260503185529 | 15 | 223 | 19.3 | 45.1 | 0.00 | 0.00 | 0.00 | 48 | 1015.4 |
| 20260503185030 | 15 | 200 | 24.1 | 45.1 | 0.00 | 0.00 | 0.00 | 50 | 1015.5 |
| 20260503184547 | 15 | 230 | 14.5 | 30.6 | 0.00 | 0.00 | 0.00 | 47 | 1015.5 |
| 20260503184030 | 15 | 252 | 14.5 | 29.0 | 0.00 | 0.00 | 0.00 | 48 | 1015.5 |
| 20260503183529 | 16 | 223 | 11.3 | 27.4 | 0.00 | 0.00 | 0.00 | 52 | 1015.6 |
| 20260503183058 | 15 | 212 | 16.1 | 32.2 | 0.00 | 0.00 | 0.00 | 47 | 1015.6 |
| 20260503182529 | 15 | 221 | 16.1 | 33.8 | 0.00 | 0.00 | 0.00 | 54 | 1015.6 |
| 20260503182030 | 15 | 229 | 16.1 | 40.2 | 0.00 | 0.00 | 0.00 | 52 | 1015.8 |
| 20260503181558 | 14 | 215 | 17.7 | 40.2 | 0.00 | 0.00 | 0.00 | 51 | 1015.7 |
| 20260503181027 | 15 | 213 | 19.3 | 40.2 | 0.00 | 0.00 | 0.00 | 50 | 1015.9 |
| 20260503180527 | 15 | 267 | 12.9 | 27.4 | 0.00 | 0.00 | 0.00 | 55 | 1015.9 |
| 20260503180042 | 15 | 223 | 14.5 | 35.4 | 0.00 | 0.00 | 0.00 | 55 | 1015.9 |
| 20260503175527 | 15 | 208 | 19.3 | 35.4 | 0.00 | 0.00 | 0.00 | 55 | 1015.9 |
| 20260503175028 | 15 | 239 | 17.7 | 30.6 | 0.00 | 0.00 | 0.00 | 51 | 1016.0 |
| 20260503174538 | 15 | 247 | 14.5 | 33.8 | 0.00 | 0.00 | 0.00 | 53 | 1016.2 |
| 20260503174028 | 14 | 201 | 14.5 | 33.8 | 0.00 | 0.00 | 0.00 | 52 | 1016.1 |
| 20260503173528 | 15 | 223 | 12.9 | 30.6 | 0.00 | 0.00 | 0.00 | 54 | 1016.1 |
| 20260503173047 | 14 | 253 | 12.9 | 30.6 | 0.00 | 0.00 | 0.00 | 55 | 1016.3 |
| 20260503172531 | 14 | 175 | 17.7 | 30.6 | 0.00 | 0.00 | 0.00 | 59 | 1016.4 |
| 20260503172029 | 14 | 221 | 17.7 | 30.6 | 0.00 | 0.00 | 0.00 | 54 | 1016.4 |
| 20260503171542 | 14 | 263 | 8.0 | 30.6 | 0.00 | 0.00 | 0.00 | 58 | 1016.5 |
| 20260503171028 | 14 | 233 | 12.9 | 30.6 | 0.00 | 0.00 | 0.00 | 54 | 1016.6 |
| 20260503170529 | 14 | 223 | 9.7 | 29.0 | 0.00 | 0.00 | 0.00 | 55 | 1016.7 |
| 20260503150527 | 12 | 222 | 11.3 | 30.6 | 0.00 | 0.00 | 0.00 | 58 | 1017.4 |
| 20260503131033 | 7 | 207 | 11.3 | 19.3 | 0.00 | 0.00 | 0.00 | 64 | 1018.1 |
| 20260503130527 | 7 | 221 | 11.3 | 19.3 | 0.00 | 0.00 | 0.00 | 64 | 1018.0 |
| 20260503110533 | 1 | 216 | 6.4 | 11.3 | 0.00 | 0.00 | 0.00 | 81 | 1017.9 |
| 20260503081546 | 1 | 224 | 3.2 | 8.0 | 0.00 | 0.00 | 0.00 | 84 | 1017.6 |
| 20260503081028 | 1 | 242 | 3.2 | 8.0 | 0.00 | 0.00 | 0.00 | 85 | 1017.6 |
| 20260503080528 | 1 | 186 | 1.6 | 8.0 | 0.00 | 0.00 | 0.00 | 85 | 1017.7 |
| 20260503072528 | 1 | 215 | 4.8 | 8.0 | 0.00 | 0.00 | 0.00 | 85 | 1017.6 |
| 20260503072028 | 1 | 214 | 4.8 | 8.0 | 0.00 | 0.00 | 0.00 | 85 | 1017.6 |
| 20260503071541 | 2 | 217 | 4.8 | 8.0 | 0.00 | 0.00 | 0.00 | 85 | 1017.6 |
| 20260503071028 | 2 | 212 | 4.8 | 8.0 | 0.00 | 0.00 | 0.00 | 85 | 1017.6 |
| 20260503070528 | 2 | 213 | 3.2 | 6.4 | 0.00 | 0.00 | 0.00 | 86 | 1017.6 |
| 20260503070109 | 2 | 213 | 3.2 | 6.4 | 0.00 | 0.00 | 0.00 | 86 | 1017.6 |
| 20260503055027 | 2 | 203 | 4.8 | 8.0 | 0.00 | 0.00 | 0.00 | 85 | 1017.9 |
| 20260503054543 | 2 | 199 | 3.2 | 6.4 | 0.00 | 0.00 | 0.00 | 85 | 1018.1 |
| 20260503054029 | 2 | 198 | 3.2 | 6.4 | 0.00 | 0.00 | 0.00 | 85 | 1018.0 |
| 20260503053528 | 2 | 198 | 3.2 | 6.4 | 0.00 | 0.00 | 0.00 | 85 | 1018.0 |
| 20260503053049 | 2 | 198 | 3.2 | 6.4 | 0.00 | 0.00 | 0.00 | 84 | 1018.1 |
| 20260503052529 | 2 | 198 | 3.2 | 6.4 | 0.00 | 0.00 | 0.00 | 84 | 1018.0 |
| 20260503052029 | 2 | 198 | 3.2 | 6.4 | 0.00 | 0.00 | 0.00 | 84 | 1018.1 |
| 20260503051553 | 2 | 198 | 3.2 | 6.4 | 0.00 | 0.00 | 0.00 | 84 | 1018.0 |
| 20260503051027 | 3 | 198 | 3.2 | 6.4 | 0.00 | 0.00 | 0.00 | 84 | 1018.1 |
| 20260503050528 | 3 | 198 | 3.2 | 6.4 | 0.00 | 0.00 | 0.00 | 83 | 1018.1 |
| 20260503050045 | 3 | 198 | 3.2 | 6.4 | 0.00 | 0.00 | 0.00 | 83 | 1018.1 |
| 20260503045528 | 3 | 198 | 3.2 | 6.4 | 0.00 | 0.00 | 0.00 | 83 | 1018.1 |
| 20260503045031 | 3 | 197 | 4.8 | 8.0 | 0.00 | 0.00 | 0.00 | 83 | 1018.1 |
| 20260503044543 | 3 | 196 | 3.2 | 8.0 | 0.00 | 0.00 | 0.00 | 82 | 1018.1 |
| 20260503044028 | 3 | 196 | 4.8 | 8.0 | 0.00 | 0.00 | 0.00 | 82 | 1018.1 |
| 20260503043528 | 3 | 205 | 4.8 | 8.0 | 0.00 | 0.00 | 0.00 | 81 | 1018.1 |
| 20260503043044 | 4 | 202 | 4.8 | 9.7 | 0.00 | 0.00 | 0.00 | 81 | 1018.1 |
| 20260503042528 | 4 | 203 | 4.8 | 9.7 | 0.00 | 0.00 | 0.00 | 81 | 1018.1 |
| 20260503042028 | 4 | 200 | 6.4 | 9.7 | 0.00 | 0.00 | 0.00 | 80 | 1018.1 |
| 20260503041543 | 4 | 200 | 4.8 | 9.7 | 0.00 | 0.00 | 0.00 | 81 | 1018.2 |
| 20260503041031 | 4 | 211 | 4.8 | 9.7 | 0.00 | 0.00 | 0.00 | 81 | 1018.1 |
| 20260503040527 | 4 | 210 | 4.8 | 9.7 | 0.00 | 0.00 | 0.00 | 81 | 1018.1 |
| 20260503040049 | 4 | 205 | 3.2 | 8.0 | 0.00 | 0.00 | 0.00 | 82 | 1018.3 |
| 20260503035528 | 4 | 207 | 4.8 | 8.0 | 0.00 | 0.00 | 0.00 | 82 | 1018.3 |
| 20260503035028 | 4 | 196 | 1.6 | 6.4 | 0.00 | 0.00 | 0.00 | 82 | 1018.2 |
| 20260503034542 | 4 | 196 | 1.6 | 8.0 | 0.00 | 0.00 | 0.00 | 81 | 1018.3 |
| 20260503034028 | 4 | 196 | 3.2 | 8.0 | 0.00 | 0.00 | 0.00 | 81 | 1018.3 |
| 20260503033527 | 4 | 196 | 4.8 | 8.0 | 0.00 | 0.00 | 0.00 | 81 | 1018.3 |
| 20260503033048 | 4 | 194 | 3.2 | 8.0 | 0.00 | 0.00 | 0.00 | 81 | 1018.3 |
| 20260503032529 | 4 | 195 | 4.8 | 8.0 | 0.00 | 0.00 | 0.00 | 81 | 1018.3 |
| 20260503032028 | 4 | 193 | 3.2 | 6.4 | 0.00 | 0.00 | 0.00 | 81 | 1018.3 |
| 20260503031541 | 4 | 193 | 3.2 | 8.0 | 0.00 | 0.00 | 0.00 | 81 | 1018.4 |
| 20260503031029 | 4 | 193 | 3.2 | 9.7 | 0.00 | 0.00 | 0.00 | 81 | 1018.4 |
| 20260503030529 | 4 | 192 | 4.8 | 9.7 | 0.00 | 0.00 | 0.00 | 81 | 1018.4 |
| 20260503030051 | 4 | 190 | 4.8 | 6.4 | 0.00 | 0.00 | 0.00 | 80 | 1018.4 |
| 20260503025528 | 4 | 194 | 3.2 | 6.4 | 0.00 | 0.00 | 0.00 | 80 | 1018.4 |
| 20260503025029 | 4 | 194 | 3.2 | 8.0 | 0.00 | 0.00 | 0.00 | 80 | 1018.4 |
| 20260503024544 | 4 | 194 | 3.2 | 8.0 | 0.00 | 0.00 | 0.00 | 81 | 1018.5 |
| 20260503024028 | 4 | 195 | 3.2 | 8.0 | 0.00 | 0.00 | 0.00 | 81 | 1018.6 |
| 20260503023527 | 4 | 194 | 3.2 | 6.4 | 0.00 | 0.00 | 0.00 | 80 | 1018.6 |
| 20260503023044 | 4 | 194 | 3.2 | 8.0 | 0.00 | 0.00 | 0.00 | 80 | 1018.7 |
| 20260503022527 | 5 | 194 | 4.8 | 8.0 | 0.00 | 0.00 | 0.00 | 80 | 1018.7 |
| 20260503022036 | 4 | 196 | 4.8 | 8.0 | 0.00 | 0.00 | 0.00 | 80 | 1018.6 |
| 20260503021540 | 4 | 196 | 4.8 | 8.0 | 0.00 | 0.00 | 0.00 | 80 | 1018.6 |
| 20260503021030 | 4 | 194 | 4.8 | 8.0 | 0.00 | 0.00 | 0.00 | 80 | 1018.4 |
| 20260503020527 | 5 | 195 | 4.8 | 9.7 | 0.00 | 0.00 | 0.00 | 80 | 1018.5 |
| 20260503020041 | 4 | 196 | 4.8 | 9.7 | 0.00 | 0.00 | 0.00 | 79 | 1018.5 |
| 20260503015528 | 4 | 200 | 4.8 | 8.0 | 0.00 | 0.00 | 0.00 | 80 | 1018.6 |
| 20260503015027 | 4 | 188 | 3.2 | 8.0 | 0.00 | 0.00 | 0.00 | 80 | 1018.5 |
| 20260503014546 | 4 | 193 | 3.2 | 9.7 | 0.00 | 0.00 | 0.00 | 80 | 1018.5 |
| 20260503014026 | 4 | 191 | 3.2 | 9.7 | 0.00 | 0.00 | 0.00 | 80 | 1018.4 |
| 20260503013529 | 5 | 195 | 4.8 | 8.0 | 0.00 | 0.00 | 0.00 | 79 | 1018.5 |
| 20260503013053 | 5 | 185 | 4.8 | 8.0 | 0.00 | 0.00 | 0.00 | 80 | 1018.5 |
| 20260503012528 | 5 | 195 | 3.2 | 6.4 | 0.00 | 0.00 | 0.00 | 80 | 1018.5 |
| 20260503012027 | 5 | 195 | 3.2 | 8.0 | 0.00 | 0.00 | 0.00 | 80 | 1018.5 |
| 20260503011547 | 5 | 195 | 3.2 | 8.0 | 0.00 | 0.00 | 0.00 | 79 | 1018.5 |
| 20260503011030 | 5 | 195 | 4.8 | 8.0 | 0.00 | 0.00 | 0.00 | 79 | 1018.5 |
| 20260503010529 | 5 | 203 | 3.2 | 6.4 | 0.00 | 0.00 | 0.00 | 79 | 1018.5 |
| 20260503010107 | 5 | 204 | 3.2 | 6.4 | 0.00 | 0.00 | 0.00 | 79 | 1018.5 |
| 20260503005528 | 5 | 205 | 3.2 | 6.4 | 0.00 | 0.00 | 0.00 | 79 | 1018.5 |
| 20260503005030 | 5 | 205 | 3.2 | 6.4 | 0.00 | 0.00 | 0.00 | 79 | 1018.5 |
| 20260503004541 | 5 | 205 | 3.2 | 6.4 | 0.00 | 0.00 | 0.00 | 78 | 1018.4 |
| 20260503004027 | 5 | 205 | 3.2 | 6.4 | 0.00 | 0.00 | 0.00 | 78 | 1018.4 |
| 20260503003527 | 5 | 205 | 1.6 | 6.4 | 0.00 | 0.00 | 0.00 | 77 | 1018.4 |
| 20260503003105 | 5 | 205 | 1.6 | 6.4 | 0.00 | 0.00 | 0.00 | 76 | 1018.4 |
| 20260503002528 | 5 | 205 | 3.2 | 8.0 | 0.00 | 0.00 | 0.00 | 74 | 1018.4 |
| 20260503002028 | 5 | 206 | 3.2 | 8.0 | 0.00 | 0.00 | 0.00 | 74 | 1018.3 |
| 20260503001540 | 5 | 207 | 4.8 | 8.0 | 0.00 | 0.00 | 0.00 | 73 | 1018.4 |
| 20260503001028 | 5 | 237 | 0.0 | 4.8 | 0.00 | 0.00 | 0.00 | 72 | 1018.4 |
| 20260503000528 | 5 | 0 | 0.0 | 3.2 | 0.00 | 0.00 | 0.00 | 70 | 1018.4 |
| 20260503000041 | 5 | 0 | 0.0 | 3.2 | 0.00 | 0.00 | 0.00 | 71 | 1018.4 |
| 20260502235527 | 5 | 0 | 0.0 | 3.2 | 0.00 | 0.00 | 0.00 | 71 | 1018.3 |
| 20260502235029 | 6 | 0 | 0.0 | 3.2 | 0.00 | 0.00 | 0.00 | 71 | 1018.3 |
| 20260502234541 | 6 | 0 | 0.0 | 4.8 | 0.00 | 0.00 | 0.00 | 71 | 1018.2 |
| 20260502234027 | 6 | 0 | 0.0 | 4.8 | 0.00 | 0.00 | 0.00 | 70 | 1018.2 |
| 20260502233528 | 6 | 237 | 1.6 | 6.4 | 0.00 | 0.00 | 0.00 | 68 | 1018.2 |
| 20260502233040 | 6 | 318 | 1.6 | 6.4 | 0.00 | 0.00 | 0.00 | 69 | 1018.2 |
| 20260502232529 | 6 | 315 | 3.2 | 8.0 | 0.00 | 0.00 | 0.00 | 67 | 1018.4 |
| 20260502232027 | 6 | 299 | 3.2 | 8.0 | 0.00 | 0.00 | 0.00 | 67 | 1018.3 |
| 20260502231547 | 6 | 301 | 1.6 | 6.4 | 0.00 | 0.00 | 0.00 | 69 | 1018.2 |
| 20260502231029 | 6 | 284 | 0.0 | 6.4 | 0.00 | 0.00 | 0.00 | 69 | 1018.3 |
| 20260502230529 | 6 | 286 | 3.2 | 6.4 | 0.00 | 0.00 | 0.00 | 67 | 1018.3 |
| 20260502230045 | 6 | 286 | 3.2 | 6.4 | 0.00 | 0.00 | 0.00 | 69 | 1018.3 |
| 20260502225530 | 6 | 286 | 3.2 | 9.7 | 0.00 | 0.00 | 0.00 | 68 | 1018.3 |
| 20260502225028 | 6 | 0 | 1.6 | 12.9 | 0.00 | 0.00 | 0.00 | 68 | 1018.3 |